| time (UTC) | temp F | wind direction | speed MPH | gust MPH | rain 1hr in | rain 24hr in | rain mn in | humidity % | barometer mb |
| 20260506015350 | 69 | 302 | 3.0 | 4.0 | 0.00 | 0.00 | 0.00 | 35 | 1013.5 |
| 20260506014855 | 69 | 329 | 0.0 | 12.0 | 0.00 | 0.00 | 0.00 | 35 | 1013.6 |
| 20260506014338 | 69 | 319 | 0.0 | 12.0 | 0.00 | 0.00 | 0.00 | 35 | 1013.6 |
| 20260506013845 | 69 | 335 | 0.0 | 7.0 | 0.00 | 0.00 | 0.00 | 36 | 1013.6 |
| 20260506013349 | 69 | 355 | 4.0 | 9.0 | 0.00 | 0.00 | 0.00 | 35 | 1013.5 |
| 20260506012835 | 69 | 58 | 4.0 | 10.0 | 0.00 | 0.00 | 0.00 | 35 | 1013.5 |
| 20260506012340 | 69 | 328 | 1.0 | 10.0 | 0.00 | 0.00 | 0.00 | 35 | 1013.5 |
| 20260506011847 | 69 | 355 | 2.0 | 7.0 | 0.00 | 0.00 | 0.00 | 35 | 1013.5 |
| 20260506011333 | 69 | 324 | 4.0 | 7.0 | 0.00 | 0.00 | 0.00 | 36 | 1013.5 |
| 20260506010837 | 69 | 346 | 0.0 | 0.0 | 0.00 | 0.00 | 0.00 | 38 | 1012.7 |
| 20260506010342 | 69 | 346 | 0.0 | 7.0 | 0.00 | 0.00 | 0.00 | 37 | 1012.7 |
| 20260506005849 | 69 | 346 | 4.0 | 11.0 | 0.00 | 0.00 | 0.00 | 36 | 1012.8 |
| 20260506005355 | 70 | 341 | 7.0 | 11.0 | 0.00 | 0.00 | 0.00 | 36 | 1012.9 |
| 20260506004835 | 70 | 338 | 6.0 | 9.0 | 0.00 | 0.00 | 0.00 | 36 | 1012.8 |
| 20260506004340 | 70 | 24 | 4.0 | 9.0 | 0.00 | 0.00 | 0.00 | 35 | 1012.6 |
| 20260506003846 | 70 | 290 | 0.0 | 5.0 | 0.00 | 0.00 | 0.00 | 34 | 1012.7 |
| 20260506003332 | 69 | 271 | 0.0 | 9.0 | 0.00 | 0.00 | 0.00 | 35 | 1012.8 |
| 20260506002837 | 69 | 344 | 2.0 | 10.0 | 0.00 | 0.00 | 0.00 | 34 | 1012.9 |
| 20260506002343 | 70 | 342 | 3.0 | 12.0 | 0.00 | 0.00 | 0.00 | 34 | 1012.8 |
| 20260506001847 | 70 | 5 | 10.0 | 12.0 | 0.00 | 0.00 | 0.00 | 35 | 1012.8 |
| 20260506001334 | 70 | 5 | 0.0 | 12.0 | 0.00 | 0.00 | 0.00 | 35 | 1012.7 |
| 20260506000840 | 70 | 15 | 1.0 | 12.0 | 0.00 | 0.00 | 0.00 | 34 | 1012.8 |
| 20260506000346 | 70 | 294 | 0.0 | 10.0 | 0.00 | 0.00 | 0.00 | 33 | 1012.8 |
| 20260505235849 | 70 | 314 | 0.0 | 10.0 | 0.00 | 0.00 | 0.00 | 34 | 1012.7 |
| 20260505235334 | 70 | 15 | 5.0 | 11.0 | 0.00 | 0.00 | 0.00 | 34 | 1012.7 |
| 20260505234838 | 70 | 338 | 0.0 | 11.0 | 0.00 | 0.00 | 0.00 | 35 | 1012.7 |
| 20260505234344 | 70 | 346 | 5.0 | 13.0 | 0.00 | 0.00 | 0.00 | 37 | 1012.7 |
| 20260505233832 | 70 | 336 | 2.0 | 13.0 | 0.00 | 0.00 | 0.00 | 36 | 1012.8 |
| 20260505233337 | 70 | 333 | 6.0 | 10.0 | 0.00 | 0.00 | 0.00 | 35 | 1012.8 |
| 20260505232842 | 70 | 59 | 6.0 | 10.0 | 0.00 | 0.00 | 0.00 | 35 | 1012.8 |
| 20260505232349 | 69 | 339 | 0.0 | 9.0 | 0.00 | 0.00 | 0.00 | 34 | 1012.8 |
| 20260505231835 | 70 | 338 | 3.0 | 9.0 | 0.00 | 0.00 | 0.00 | 34 | 1012.8 |
| 20260505231338 | 70 | 281 | 0.0 | 7.0 | 0.00 | 0.00 | 0.00 | 37 | 1012.8 |
| 20260505230843 | 70 | 275 | 3.0 | 7.0 | 0.00 | 0.00 | 0.00 | 36 | 1012.8 |
| 20260505230348 | 69 | 10 | 0.0 | 6.0 | 0.00 | 0.00 | 0.00 | 36 | 1012.8 |
| 20260505225832 | 69 | 263 | 2.0 | 6.0 | 0.00 | 0.00 | 0.00 | 36 | 1013.0 |
| 20260505225336 | 68 | 331 | 0.0 | 7.0 | 0.00 | 0.00 | 0.00 | 38 | 1013.2 |
| 20260505224841 | 68 | 346 | 2.0 | 14.0 | 0.00 | 0.00 | 0.00 | 38 | 1013.4 |
| 20260505224348 | 68 | 280 | 3.0 | 14.0 | 0.00 | 0.00 | 0.00 | 37 | 1013.4 |
| 20260505223833 | 69 | 276 | 2.0 | 6.0 | 0.00 | 0.00 | 0.00 | 37 | 1013.3 |
| 20260505223338 | 69 | 5 | 0.0 | 7.0 | 0.00 | 0.00 | 0.00 | 36 | 1013.2 |
| 20260505222842 | 69 | 23 | 2.0 | 11.0 | 0.00 | 0.00 | 0.00 | 36 | 1013.3 |
| 20260505222346 | 69 | 237 | 2.0 | 11.0 | 0.00 | 0.00 | 0.00 | 38 | 1013.3 |
| 20260505221835 | 69 | 57 | 5.0 | 10.0 | 0.00 | 0.00 | 0.00 | 39 | 1013.5 |
| 20260505221340 | 68 | 355 | 0.0 | 10.0 | 0.00 | 0.00 | 0.00 | 38 | 1013.5 |
| 20260505220846 | 68 | 22 | 5.0 | 10.0 | 0.00 | 0.00 | 0.00 | 39 | 1013.7 |
| 20260505220349 | 67 | 348 | 0.0 | 10.0 | 0.00 | 0.00 | 0.00 | 37 | 1013.6 |
| 20260505215834 | 68 | 310 | 0.0 | 10.0 | 0.00 | 0.00 | 0.00 | 39 | 1013.7 |
| 20260505215339 | 68 | 333 | 0.0 | 7.0 | 0.00 | 0.00 | 0.00 | 37 | 1013.6 |
| 20260505214845 | 68 | 349 | 4.0 | 12.0 | 0.00 | 0.00 | 0.00 | 38 | 1013.7 |
| 20260505214350 | 68 | 322 | 0.0 | 12.0 | 0.00 | 0.00 | 0.00 | 37 | 1013.6 |
| 20260505213833 | 68 | 315 | 4.0 | 10.0 | 0.00 | 0.00 | 0.00 | 37 | 1013.7 |
| 20260505213341 | 68 | 343 | 3.0 | 10.0 | 0.00 | 0.00 | 0.00 | 36 | 1013.7 |
| 20260505212848 | 68 | 344 | 5.0 | 10.0 | 0.00 | 0.00 | 0.00 | 37 | 1013.8 |
| 20260505212331 | 68 | 5 | 2.0 | 6.0 | 0.00 | 0.00 | 0.00 | 39 | 1013.7 |
| 20260505211835 | 68 | 344 | 0.0 | 14.0 | 0.00 | 0.00 | 0.00 | 43 | 1013.6 |
| 20260505211340 | 68 | 306 | 4.0 | 14.0 | 0.00 | 0.00 | 0.00 | 40 | 1013.7 |
| 20260505210844 | 67 | 253 | 0.0 | 4.0 | 0.00 | 0.00 | 0.00 | 39 | 1013.5 |
| 20260505210349 | 66 | 252 | 2.0 | 4.0 | 0.00 | 0.00 | 0.00 | 44 | 1013.7 |
| 20260505205834 | 66 | 252 | 0.0 | 3.0 | 0.00 | 0.00 | 0.00 | 46 | 1013.8 |
| 20260505205339 | 66 | 252 | 0.0 | 6.0 | 0.00 | 0.00 | 0.00 | 45 | 1013.9 |
| 20260505204843 | 66 | 252 | 2.0 | 6.0 | 0.00 | 0.00 | 0.00 | 45 | 1013.7 |
| 20260505204347 | 66 | 216 | 0.0 | 0.0 | 0.00 | 0.00 | 0.00 | 43 | 1013.7 |
| 20260505203833 | 67 | 217 | 0.0 | 1.0 | 0.00 | 0.00 | 0.00 | 42 | 1013.8 |
| 20260505203339 | 66 | 216 | 0.0 | 1.0 | 0.00 | 0.00 | 0.00 | 45 | 1013.7 |
| 20260505202845 | 66 | 217 | 0.0 | 1.0 | 0.00 | 0.00 | 0.00 | 44 | 1013.7 |
| 20260505202351 | 66 | 217 | 0.0 | 3.0 | 0.00 | 0.00 | 0.00 | 46 | 1013.7 |
| 20260505201837 | 66 | 216 | 0.0 | 3.0 | 0.00 | 0.00 | 0.00 | 44 | 1013.6 |
| 20260505201341 | 66 | 216 | 0.0 | 6.0 | 0.00 | 0.00 | 0.00 | 47 | 1013.6 |
| 20260505200847 | 66 | 216 | 1.0 | 6.0 | 0.00 | 0.00 | 0.00 | 46 | 1013.0 |
| 20260505200333 | 66 | 215 | 4.0 | 5.0 | 0.00 | 0.00 | 0.00 | 48 | 1013.0 |
| 20260505195838 | 66 | 279 | 4.0 | 5.0 | 0.00 | 0.00 | 0.00 | 50 | 1013.0 |
| 20260505195341 | 65 | 304 | 0.0 | 6.0 | 0.00 | 0.00 | 0.00 | 45 | 1013.1 |
| 20260505194845 | 66 | 304 | 2.0 | 6.0 | 0.00 | 0.00 | 0.00 | 48 | 1013.1 |
| 20260505194347 | 65 | 231 | 0.0 | 3.0 | 0.00 | 0.00 | 0.00 | 44 | 1013.1 |
| 20260505193833 | 65 | 231 | 0.0 | 3.0 | 0.00 | 0.00 | 0.00 | 47 | 1013.3 |
| 20260505193339 | 65 | 231 | 0.0 | 0.0 | 0.00 | 0.00 | 0.00 | 48 | 1013.3 |
| 20260505192845 | 65 | 231 | 0.0 | 3.0 | 0.00 | 0.00 | 0.00 | 49 | 1013.3 |
| 20260505192350 | 65 | 231 | 3.0 | 3.0 | 0.00 | 0.00 | 0.00 | 48 | 1013.3 |
| 20260505191835 | 65 | 231 | 0.0 | 7.0 | 0.00 | 0.00 | 0.00 | 47 | 1013.3 |
| 20260505191340 | 64 | 231 | 1.0 | 7.0 | 0.00 | 0.00 | 0.00 | 46 | 1013.3 |
| 20260505190844 | 64 | 205 | 4.0 | 4.0 | 0.00 | 0.00 | 0.00 | 49 | 1013.4 |
| 20260505190349 | 64 | 247 | 2.0 | 4.0 | 0.00 | 0.00 | 0.00 | 51 | 1013.4 |
| 20260505185833 | 63 | 217 | 2.0 | 6.0 | 0.00 | 0.00 | 0.00 | 52 | 1013.4 |
| 20260505185339 | 63 | 211 | 1.0 | 6.0 | 0.00 | 0.00 | 0.00 | 52 | 1013.3 |
| 20260505184845 | 64 | 219 | 3.0 | 5.0 | 0.00 | 0.00 | 0.00 | 51 | 1013.3 |
| 20260505184331 | 64 | 255 | 3.0 | 4.0 | 0.00 | 0.00 | 0.00 | 52 | 1013.3 |
| 20260505183836 | 63 | 216 | 0.0 | 6.0 | 0.00 | 0.00 | 0.00 | 54 | 1013.3 |
| 20260505183341 | 63 | 215 | 1.0 | 6.0 | 0.00 | 0.00 | 0.00 | 54 | 1013.3 |
| 20260505182847 | 63 | 230 | 1.0 | 5.0 | 0.00 | 0.00 | 0.00 | 54 | 1013.4 |
| 20260505182331 | 62 | 232 | 0.0 | 5.0 | 0.00 | 0.00 | 0.00 | 53 | 1013.5 |
| 20260505181836 | 62 | 241 | 0.0 | 4.0 | 0.00 | 0.00 | 0.00 | 53 | 1013.5 |
| 20260505181339 | 62 | 226 | 0.0 | 4.0 | 0.00 | 0.00 | 0.00 | 55 | 1013.5 |
| 20260505180847 | 62 | 232 | 0.0 | 4.0 | 0.00 | 0.00 | 0.00 | 55 | 1013.4 |
| 20260505180333 | 61 | 221 | 1.0 | 4.0 | 0.00 | 0.00 | 0.00 | 56 | 1013.4 |
| 20260505175837 | 61 | 217 | 3.0 | 6.0 | 0.00 | 0.00 | 0.00 | 58 | 1013.6 |
| 20260505175341 | 61 | 207 | 2.0 | 6.0 | 0.00 | 0.00 | 0.00 | 56 | 1013.6 |
| 20260505174848 | 60 | 275 | 1.0 | 6.0 | 0.00 | 0.00 | 0.00 | 57 | 1013.6 |
| 20260505174334 | 60 | 283 | 3.0 | 4.0 | 0.00 | 0.00 | 0.00 | 60 | 1013.7 |
| 20260505173839 | 60 | 221 | 2.0 | 4.0 | 0.00 | 0.00 | 0.00 | 59 | 1013.6 |
| 20260505173340 | 59 | 220 | 0.0 | 6.0 | 0.00 | 0.00 | 0.00 | 59 | 1013.6 |
| 20260505172845 | 59 | 213 | 0.0 | 6.0 | 0.00 | 0.00 | 0.00 | 61 | 1013.6 |
| 20260505172331 | 59 | 265 | 0.0 | 8.0 | 0.00 | 0.00 | 0.00 | 55 | 1013.8 |
| 20260505171836 | 59 | 350 | 0.0 | 8.0 | 0.00 | 0.00 | 0.00 | 55 | 1013.7 |
| 20260505171341 | 58 | 360 | 4.0 | 8.0 | 0.00 | 0.00 | 0.00 | 57 | 1013.9 |
| 20260505170848 | 58 | 332 | 3.0 | 10.0 | 0.00 | 0.00 | 0.00 | 56 | 1013.9 |
| 20260505170335 | 57 | 26 | 7.0 | 11.0 | 0.00 | 0.00 | 0.00 | 57 | 1014.0 |
| 20260505165841 | 57 | 355 | 0.0 | 11.0 | 0.00 | 0.00 | 0.00 | 58 | 1013.9 |
| 20260505165345 | 57 | 355 | 1.0 | 9.0 | 0.00 | 0.00 | 0.00 | 59 | 1013.9 |
| 20260505164850 | 56 | 321 | 1.0 | 4.0 | 0.00 | 0.00 | 0.00 | 61 | 1013.9 |
| 20260505164334 | 56 | 322 | 2.0 | 6.0 | 0.00 | 0.00 | 0.00 | 62 | 1013.8 |
| 20260505163839 | 55 | 39 | 4.0 | 6.0 | 0.00 | 0.00 | 0.00 | 63 | 1013.7 |
| 20260505163344 | 54 | 288 | 2.0 | 6.0 | 0.00 | 0.00 | 0.00 | 68 | 1013.8 |
| 20260505162848 | 53 | 252 | 0.0 | 4.0 | 0.00 | 0.00 | 0.00 | 72 | 1013.7 |
| 20260505162332 | 52 | 252 | 0.0 | 4.0 | 0.00 | 0.00 | 0.00 | 72 | 1013.7 |
| 20260505161834 | 52 | 257 | 0.0 | 4.0 | 0.00 | 0.00 | 0.00 | 73 | 1013.7 |
| 20260505161339 | 52 | 257 | 0.0 | 3.0 | 0.00 | 0.00 | 0.00 | 73 | 1013.9 |
| 20260505160844 | 51 | 257 | 0.0 | 3.0 | 0.00 | 0.00 | 0.00 | 75 | 1013.8 |
| 20260505160350 | 51 | 257 | 2.0 | 3.0 | 0.00 | 0.00 | 0.00 | 77 | 1013.8 |
| 20260505153334 | 47 | 257 | 0.0 | 3.0 | 0.00 | 0.00 | 0.00 | 84 | 1013.9 |
| 20260505152839 | 47 | 257 | 0.0 | 0.0 | 0.00 | 0.00 | 0.00 | 87 | 1013.8 |
| 20260505152344 | 46 | 257 | 0.0 | 0.0 | 0.00 | 0.00 | 0.00 | 88 | 1013.8 |
| 20260505151849 | 46 | 257 | 0.0 | 0.0 | 0.00 | 0.00 | 0.00 | 88 | 1013.8 |
| 20260505151351 | 46 | 257 | 0.0 | 0.0 | 0.00 | 0.00 | 0.00 | 88 | 1013.9 |
| 20260505150834 | 46 | 257 | 0.0 | 0.0 | 0.00 | 0.00 | 0.00 | 88 | 1013.7 |
| 20260505150338 | 46 | 257 | 0.0 | 0.0 | 0.00 | 0.00 | 0.00 | 88 | 1013.7 |
| 20260505140353 | 44 | 257 | 0.0 | 0.0 | 0.00 | 0.00 | 0.00 | 89 | 1013.6 |
| 20260505124832 | 44 | 257 | 0.0 | 0.0 | 0.00 | 0.00 | 0.00 | 88 | 1012.9 |
| 20260505124338 | 44 | 257 | 0.0 | 0.0 | 0.00 | 0.00 | 0.00 | 88 | 1012.9 |
| 20260505123844 | 44 | 257 | 0.0 | 0.0 | 0.00 | 0.00 | 0.00 | 88 | 1012.8 |
| 20260505123350 | 44 | 257 | 0.0 | 0.0 | 0.00 | 0.00 | 0.00 | 88 | 1012.6 |
| 20260505122836 | 44 | 257 | 0.0 | 0.0 | 0.00 | 0.00 | 0.00 | 88 | 1012.7 |
| 20260505122343 | 44 | 257 | 0.0 | 0.0 | 0.00 | 0.00 | 0.00 | 88 | 1012.6 |
| 20260505121848 | 44 | 257 | 0.0 | 5.0 | 0.00 | 0.00 | 0.00 | 88 | 1012.7 |
| 20260505121333 | 44 | 257 | 2.0 | 5.0 | 0.00 | 0.00 | 0.00 | 88 | 1012.7 |
| 20260505120838 | 44 | 257 | 0.0 | 0.0 | 0.00 | 0.00 | 0.00 | 88 | 1012.7 |
| 20260505120343 | 44 | 257 | 0.0 | 0.0 | 0.00 | 0.00 | 0.00 | 88 | 1012.8 |
| 20260505115848 | 44 | 257 | 0.0 | 0.0 | 0.00 | 0.00 | 0.00 | 88 | 1012.7 |
| 20260505115334 | 44 | 257 | 0.0 | 0.0 | 0.00 | 0.00 | 0.00 | 88 | 1012.8 |
| 20260505114837 | 44 | 257 | 0.0 | 0.0 | 0.00 | 0.00 | 0.00 | 88 | 1012.8 |
| 20260505114339 | 45 | 257 | 0.0 | 3.0 | 0.00 | 0.00 | 0.00 | 88 | 1012.8 |
| 20260505113844 | 45 | 257 | 0.0 | 4.0 | 0.00 | 0.00 | 0.00 | 88 | 1012.9 |
| 20260505113350 | 45 | 257 | 0.0 | 4.0 | 0.00 | 0.00 | 0.00 | 88 | 1012.8 |
| 20260505112835 | 45 | 257 | 0.0 | 5.0 | 0.00 | 0.00 | 0.00 | 88 | 1012.9 |
| 20260505112342 | 45 | 257 | 2.0 | 5.0 | 0.00 | 0.00 | 0.00 | 88 | 1012.9 |
| 20260505111845 | 45 | 198 | 0.0 | 3.0 | 0.00 | 0.00 | 0.00 | 88 | 1012.9 |
| 20260505111352 | 45 | 198 | 0.0 | 3.0 | 0.00 | 0.00 | 0.00 | 87 | 1013.0 |
| 20260505110833 | 45 | 198 | 0.0 | 0.0 | 0.00 | 0.00 | 0.00 | 87 | 1013.0 |
| 20260505110337 | 45 | 198 | 0.0 | 2.0 | 0.00 | 0.00 | 0.00 | 87 | 1012.9 |
| 20260505101841 | 45 | 198 | 0.0 | 0.0 | 0.00 | 0.00 | 0.00 | 87 | 1012.9 |
| 20260505101345 | 45 | 198 | 0.0 | 0.0 | 0.00 | 0.00 | 0.00 | 87 | 1012.9 |
| 20260505100849 | 45 | 198 | 0.0 | 0.0 | 0.00 | 0.00 | 0.00 | 87 | 1013.0 |
| 20260505100335 | 45 | 198 | 0.0 | 0.0 | 0.00 | 0.00 | 0.00 | 87 | 1013.0 |
| 20260505095840 | 45 | 198 | 0.0 | 0.0 | 0.00 | 0.00 | 0.00 | 87 | 1013.0 |
| 20260505095346 | 45 | 198 | 0.0 | 0.0 | 0.00 | 0.00 | 0.00 | 87 | 1013.1 |
| 20260505094832 | 45 | 198 | 0.0 | 0.0 | 0.00 | 0.00 | 0.00 | 87 | 1013.1 |
| 20260505094336 | 45 | 198 | 0.0 | 0.0 | 0.00 | 0.00 | 0.00 | 87 | 1013.1 |
| 20260505093840 | 45 | 198 | 0.0 | 0.0 | 0.00 | 0.00 | 0.00 | 87 | 1013.0 |
| 20260505093347 | 45 | 198 | 0.0 | 0.0 | 0.00 | 0.00 | 0.00 | 87 | 1012.9 |
| 20260505092832 | 45 | 198 | 0.0 | 0.0 | 0.00 | 0.00 | 0.00 | 87 | 1013.0 |
| 20260505092338 | 45 | 198 | 0.0 | 0.0 | 0.00 | 0.00 | 0.00 | 87 | 1013.0 |
| 20260505091843 | 45 | 198 | 0.0 | 0.0 | 0.00 | 0.00 | 0.00 | 87 | 1013.0 |
| 20260505091332 | 45 | 198 | 0.0 | 0.0 | 0.00 | 0.00 | 0.00 | 87 | 1013.1 |
| 20260505090837 | 45 | 198 | 0.0 | 0.0 | 0.00 | 0.00 | 0.00 | 87 | 1013.1 |
| 20260505090342 | 45 | 198 | 0.0 | 1.0 | 0.00 | 0.00 | 0.00 | 87 | 1013.0 |
| 20260505085846 | 45 | 198 | 0.0 | 1.0 | 0.00 | 0.00 | 0.00 | 87 | 1013.2 |
| 20260505085332 | 45 | 198 | 0.0 | 0.0 | 0.00 | 0.00 | 0.00 | 87 | 1013.2 |
| 20260505084836 | 45 | 198 | 0.0 | 0.0 | 0.00 | 0.00 | 0.00 | 87 | 1013.2 |
| 20260505084340 | 45 | 198 | 0.0 | 0.0 | 0.00 | 0.00 | 0.00 | 87 | 1013.2 |
| 20260505083848 | 45 | 198 | 0.0 | 0.0 | 0.00 | 0.00 | 0.00 | 87 | 1013.2 |
| 20260505083334 | 45 | 198 | 0.0 | 0.0 | 0.00 | 0.00 | 0.00 | 87 | 1013.1 |
| 20260505082840 | 45 | 198 | 0.0 | 0.0 | 0.00 | 0.00 | 0.00 | 87 | 1013.2 |
| 20260505082346 | 45 | 198 | 0.0 | 0.0 | 0.00 | 0.00 | 0.00 | 87 | 1013.2 |
| 20260505081832 | 45 | 198 | 0.0 | 0.0 | 0.00 | 0.00 | 0.00 | 86 | 1013.2 |
| 20260505081336 | 45 | 198 | 0.0 | 0.0 | 0.00 | 0.00 | 0.00 | 86 | 1013.2 |
| 20260505080841 | 45 | 198 | 0.0 | 0.0 | 0.00 | 0.00 | 0.00 | 86 | 1013.1 |
| 20260505080346 | 45 | 198 | 0.0 | 0.0 | 0.00 | 0.00 | 0.00 | 86 | 1013.1 |
| 20260505075834 | 45 | 198 | 0.0 | 0.0 | 0.00 | 0.00 | 0.00 | 86 | 1013.2 |
| 20260505075338 | 45 | 198 | 0.0 | 2.0 | 0.00 | 0.00 | 0.00 | 86 | 1013.2 |
| 20260505074844 | 45 | 198 | 0.0 | 2.0 | 0.00 | 0.00 | 0.00 | 86 | 1013.3 |
| 20260505074347 | 45 | 198 | 0.0 | 0.0 | 0.00 | 0.00 | 0.00 | 86 | 1013.5 |
| 20260505073833 | 45 | 198 | 0.0 | 4.0 | 0.00 | 0.00 | 0.00 | 85 | 1013.6 |
| 20260505073338 | 45 | 198 | 0.0 | 4.0 | 0.00 | 0.00 | 0.00 | 85 | 1013.3 |
| 20260505072842 | 45 | 197 | 0.0 | 3.0 | 0.00 | 0.00 | 0.00 | 85 | 1013.5 |
| 20260505072350 | 45 | 197 | 1.0 | 3.0 | 0.00 | 0.00 | 0.00 | 85 | 1013.6 |
| 20260505071834 | 45 | 197 | 0.0 | 3.0 | 0.00 | 0.00 | 0.00 | 85 | 1013.4 |
| 20260505071341 | 45 | 197 | 0.0 | 3.0 | 0.00 | 0.00 | 0.00 | 85 | 1013.6 |
| 20260505070842 | 45 | 194 | 0.0 | 4.0 | 0.00 | 0.00 | 0.00 | 85 | 1013.7 |
| 20260505070349 | 45 | 194 | 0.0 | 4.0 | 0.00 | 0.00 | 0.00 | 84 | 1013.7 |
| 20260505065846 | 45 | 194 | 0.0 | 4.0 | 0.00 | 0.00 | 0.00 | 84 | 1013.6 |
| 20260505065332 | 45 | 193 | 0.0 | 4.0 | 0.00 | 0.00 | 0.00 | 84 | 1013.6 |
| 20260505064838 | 45 | 193 | 0.0 | 3.0 | 0.00 | 0.00 | 0.00 | 84 | 1013.5 |
| 20260505064344 | 45 | 193 | 0.0 | 1.0 | 0.00 | 0.00 | 0.00 | 84 | 1013.5 |
| 20260505063849 | 45 | 193 | 0.0 | 3.0 | 0.00 | 0.00 | 0.00 | 84 | 1013.4 |
| 20260505063335 | 46 | 274 | 0.0 | 3.0 | 0.00 | 0.00 | 0.00 | 84 | 1013.5 |
| 20260505062838 | 46 | 274 | 0.0 | 0.0 | 0.00 | 0.00 | 0.00 | 84 | 1013.6 |
| 20260505062346 | 46 | 274 | 0.0 | 2.0 | 0.00 | 0.00 | 0.00 | 83 | 1013.7 |
| 20260505061832 | 46 | 274 | 0.0 | 2.0 | 0.00 | 0.00 | 0.00 | 83 | 1013.8 |
| 20260505061337 | 46 | 274 | 0.0 | 0.0 | 0.00 | 0.00 | 0.00 | 84 | 1013.9 |
| 20260505060841 | 46 | 274 | 0.0 | 0.0 | 0.00 | 0.00 | 0.00 | 84 | 1013.9 |
| 20260505060348 | 46 | 274 | 0.0 | 0.0 | 0.00 | 0.00 | 0.00 | 83 | 1014.0 |
| 20260505055834 | 46 | 274 | 0.0 | 0.0 | 0.00 | 0.00 | 0.00 | 83 | 1014.0 |
| 20260505055339 | 46 | 274 | 0.0 | 4.0 | 0.00 | 0.00 | 0.00 | 83 | 1014.0 |
| 20260505054843 | 46 | 274 | 0.0 | 5.0 | 0.00 | 0.00 | 0.00 | 83 | 1014.0 |
| 20260505054351 | 46 | 260 | 0.0 | 5.0 | 0.00 | 0.00 | 0.00 | 83 | 1013.9 |
| 20260505053833 | 46 | 220 | 1.0 | 1.0 | 0.00 | 0.00 | 0.00 | 83 | 1013.7 |
| 20260505053339 | 46 | 219 | 0.0 | 1.0 | 0.00 | 0.00 | 0.00 | 83 | 1013.6 |
| 20260505052845 | 46 | 215 | 0.0 | 1.0 | 0.00 | 0.00 | 0.00 | 83 | 1013.7 |
| 20260505052331 | 46 | 215 | 0.0 | 0.0 | 0.00 | 0.00 | 0.00 | 83 | 1013.8 |
| 20260505051836 | 46 | 215 | 0.0 | 2.0 | 0.00 | 0.00 | 0.00 | 83 | 1014.0 |
| 20260505051342 | 46 | 215 | 0.0 | 5.0 | 0.00 | 0.00 | 0.00 | 83 | 1014.1 |
| 20260505050845 | 46 | 221 | 2.0 | 5.0 | 0.00 | 0.00 | 0.00 | 83 | 1013.8 |
| 20260505050333 | 46 | 218 | 0.0 | 4.0 | 0.00 | 0.00 | 0.00 | 83 | 1013.5 |
| 20260505041344 | 46 | 279 | 2.0 | 4.0 | 0.00 | 0.00 | 0.00 | 83 | 1013.1 |
| 20260505040851 | 46 | 284 | 0.0 | 7.0 | 0.00 | 0.00 | 0.00 | 84 | 1013.1 |
| 20260505040336 | 46 | 283 | 4.0 | 7.0 | 0.00 | 0.00 | 0.00 | 84 | 1012.9 |
| 20260505035841 | 46 | 217 | 0.0 | 5.0 | 0.00 | 0.00 | 0.00 | 84 | 1012.8 |
| 20260505035345 | 46 | 201 | 1.0 | 4.0 | 0.00 | 0.00 | 0.00 | 84 | 1012.7 |
| 20260505034849 | 46 | 160 | 1.0 | 4.0 | 0.00 | 0.00 | 0.00 | 84 | 1012.7 |
| 20260505034334 | 47 | 213 | 0.0 | 6.0 | 0.00 | 0.00 | 0.00 | 84 | 1012.5 |
| 20260505033839 | 47 | 251 | 2.0 | 6.0 | 0.00 | 0.00 | 0.00 | 84 | 1012.7 |
| 20260505033343 | 47 | 220 | 1.0 | 5.0 | 0.00 | 0.00 | 0.00 | 84 | 1012.7 |
| 20260505032850 | 47 | 242 | 1.0 | 9.0 | 0.00 | 0.00 | 0.00 | 84 | 1012.5 |
| 20260505032336 | 47 | 196 | 7.0 | 9.0 | 0.00 | 0.00 | 0.00 | 83 | 1012.5 |
| 20260505031840 | 47 | 251 | 0.0 | 5.0 | 0.00 | 0.00 | 0.00 | 83 | 1012.4 |
| 20260505031343 | 47 | 234 | 0.0 | 5.0 | 0.00 | 0.00 | 0.00 | 83 | 1012.3 |
| 20260505030849 | 48 | 249 | 3.0 | 5.0 | 0.00 | 0.00 | 0.00 | 82 | 1012.3 |
| 20260505030333 | 48 | 237 | 3.0 | 6.0 | 0.00 | 0.00 | 0.00 | 82 | 1012.2 |
| 20260505025838 | 48 | 211 | 4.0 | 6.0 | 0.00 | 0.00 | 0.00 | 82 | 1012.3 |
| 20260505025342 | 48 | 110 | 2.0 | 5.0 | 0.00 | 0.00 | 0.00 | 82 | 1012.4 |
| 20260505024846 | 48 | 102 | 0.0 | 5.0 | 0.00 | 0.00 | 0.00 | 82 | 1012.1 |
| 20260505024333 | 48 | 165 | 2.0 | 3.0 | 0.00 | 0.00 | 0.00 | 82 | 1012.0 |
| 20260505023836 | 48 | 166 | 0.0 | 1.0 | 0.00 | 0.00 | 0.00 | 83 | 1012.0 |
| 20260505023344 | 48 | 166 | 0.0 | 6.0 | 0.00 | 0.00 | 0.00 | 83 | 1011.8 |
| 20260505022848 | 48 | 166 | 3.0 | 6.0 | 0.00 | 0.00 | 0.00 | 83 | 1011.7 |
| 20260505022332 | 48 | 160 | 1.0 | 4.0 | 0.00 | 0.00 | 0.00 | 83 | 1011.7 |
| 20260505021836 | 48 | 98 | 3.0 | 5.0 | 0.00 | 0.00 | 0.00 | 83 | 1011.8 |
| 20260505021340 | 49 | 153 | 4.0 | 5.0 | 0.00 | 0.00 | 0.00 | 83 | 1011.8 |
| 20260505020845 | 49 | 122 | 1.0 | 6.0 | 0.00 | 0.00 | 0.00 | 83 | 1011.7 |
| 20260505020351 | 49 | 234 | 0.0 | 7.0 | 0.00 | 0.00 | 0.00 | 83 | 1011.4 |
| 20260505015835 | 49 | 298 | 2.0 | 7.0 | 0.00 | 0.00 | 0.00 | 83 | 1011.5 |